This demonstration page uses our WeatherBlox Daily Observations layout. Learn more.

Hourly Observations for June 2, 2017

Temp ( °F °C ) Dew Point ( °F °C ) Humidity (%) Winds ( mph kmh ) Pressure ( in mb ) Visibility ( mi km ) Precip ( " mm )
12:15 am 00:15 Clear 61 16 54 12 77 77 Calm 30.03 1017 10 16.09344 0 0
12:35 am 00:35 Clear 61 16 52 11 72 72 Calm 30.03 1017 10 16.09344 0 0
12:55 am 00:55 Clear 61 16 52 11 72 72 Calm 30.03 1017 10 16.09344 0 0
1:15 am 01:15 Clear 61 16 54 12 77 77 Calm 30.03 1017 10 16.09344 0 0
1:35 am 01:35 Clear 59 15 54 12 82 82 Calm 30.03 1017 10 16.09344 0 0
1:55 am 01:55 Clear 59 15 54 12 82 82 SW 3 6 30.03 1017 10 16.09344 0 0
2:15 am 02:15 Clear 59 15 54 12 82 82 WSW 5 7 30.03 1017 10 16.09344 0 0
2:35 am 02:35 Clear 59 15 54 12 82 82 WNW 3 6 30.03 1017 10 16.09344 0 0
2:55 am 02:55 Clear 59 15 54 12 82 82 W 3 6 30.03 1017 10 16.09344 0 0
3:15 am 03:15 Clear 57 14 54 12 88 88 Calm 30.03 1017 10 16.09344 0 0
3:35 am 03:35 Clear 57 14 52 11 82 82 W 3 6 30.03 1017 10 16.09344 0 0
3:55 am 03:55 Clear 59 15 52 11 77 77 WSW 3 6 30.03 1017 10 16.09344 0 0
4:15 am 04:15 Clear 59 15 52 11 77 77 W 3 6 30.03 1017 10 16.09344 0 0
4:35 am 04:35 Clear 57 14 52 11 82 82 Calm 30.03 1017 10 16.09344 0 0
4:55 am 04:55 Clear 59 15 52 11 77 77 Calm 30.03 1017 10 16.09344 0 0
5:15 am 05:15 Clear 57 14 52 11 82 82 N 3 6 30.03 1017 10 16.09344 0 0
5:35 am 05:35 Clear 57 14 52 11 82 82 Calm 30.03 1017 10 16.09344 0 0
5:55 am 05:55 Sunny 55 13 54 12 94 94 Calm 30.03 1017 10 16.09344 0 0
6:15 am 06:15 Sunny 55 13 52 11 88 88 Calm 30.03 1017 10 16.09344 0 0
6:35 am 06:35 Sunny 55 13 54 12 94 94 Calm 30.03 1017 10 16.09344 0 0
6:55 am 06:55 Sunny 59 15 55 13 88 88 Calm 30.03 1017 10 16.09344 0 0
7:15 am 07:15 Sunny 61 16 55 13 83 83 Calm 30.03 1017 10 16.09344 0 0
7:35 am 07:35 Sunny 63 17 54 12 73 73 Calm 30.03 1017 10 16.09344 0 0
7:55 am 07:55 Sunny 64 18 55 13 73 73 Calm 30.06 1018 10 16.09344 0 0
8:15 am 08:15 Sunny 66 19 55 13 68 68 Calm 30.06 1018 10 16.09344 0 0
8:35 am 08:35 Sunny 68 20 55 13 64 64 Calm 30.06 1018 10 16.09344 0 0
8:55 am 08:55 Sunny 70 21 57 14 64 64 Calm 30.06 1018 10 16.09344 0 0
9:15 am 09:15 Sunny 72 22 57 14 61 61 NNE 3 6 30.06 1018 10 16.09344 0 0
9:35 am 09:35 Sunny 72 22 57 14 61 61 N 7 11 30.06 1018 10 16.09344 0 0
9:55 am 09:55 Sunny 73 23 59 15 61 61 NNW 8 13 30.06 1018 10 16.09344 0 0
10:15 am 10:15 Sunny 75 24 59 15 57 57 W 6 9 30.06 1018 10 16.09344 0 0
10:35 am 10:35 Sunny 75 24 57 14 54 54 NNW 10 17 30.06 1018 10 16.09344 0 0
10:55 am 10:55 Sunny 77 25 55 13 47 47 NW 12 19 30.06 1018 10 16.09344 0 0
11:15 am 11:15 Sunny 77 25 52 11 42 42 N 10 17 30.06 1018 10 16.09344 0 0
11:35 am 11:35 Sunny 77 25 54 12 44 44 NNW 10 17 30.06 1018 10 16.09344 0 0
11:55 am 11:55 Sunny 77 25 55 13 47 47 NNE 9 15 30.06 1018 10 16.09344 0 0
12:15 pm 12:15 Sunny 77 25 55 13 47 47 N 10 17 30.06 1018 10 16.09344 0 0
12:35 pm 12:35 Sunny 77 25 57 14 51 51 WNW 14 22 30.03 1017 10 16.09344 0 0
12:55 pm 12:55 Sunny 79 26 52 11 39 39 NNW 15 24 30.03 1017 10 16.09344 0 0
1:15 pm 13:15 Partly Cloudy 79 26 52 11 39 39 NNW 16 26 30.03 1017 10 16.09344 0 0
1:35 pm 13:35 Sunny 79 26 54 12 42 42 NW 8 13 30.03 1017 10 16.09344 0 0
1:55 pm 13:55 Sunny 79 26 52 11 39 39 N 13 20 30.03 1017 10 16.09344 0 0
2:15 pm 14:15 Partly Cloudy 79 26 52 11 39 39 NW 15 24 30.03 1017 10 16.09344 0 0
2:35 pm 14:35 Partly Cloudy 79 26 52 11 39 39 NNW 10 17 30.03 1017 10 16.09344 0 0
2:55 pm 14:55 Partly Cloudy 79 26 52 11 39 39 NW 12 19 30.03 1017 10 16.09344 0 0
3:15 pm 15:15 Mostly Cloudy 79 26 50 10 37 37 NNW 12 19 30.03 1017 10 16.09344 0 0
3:35 pm 15:35 Partly Cloudy 81 27 50 10 34 34 NW 17 28 30 1016 10 16.09344 0 0
3:55 pm 15:55 Partly Cloudy 81 27 46 8 30 30 N 16 26 30 1016 10 16.09344 0 0
4:15 pm 16:15 Partly Cloudy 81 27 48 9 32 32 NNW 17 28 30 1016 10 16.09344 0 0
4:35 pm 16:35 Partly Cloudy 81 27 50 10 34 34 NNW 15 24 30 1016 10 16.09344 0 0
4:55 pm 16:55 Partly Cloudy 79 26 50 10 37 37 NNW 21 33 30 1016 10 16.09344 0 0
5:15 pm 17:15 Sunny 79 26 46 8 32 32 NNW 17 28 30 1016 10 16.09344 0 0
5:35 pm 17:35 Sunny 79 26 48 9 34 34 NNW 18 30 30 1016 10 16.09344 0 0
5:55 pm 17:55 Sunny 79 26 46 8 32 32 NNW 16 26 30 1016 10 16.09344 0 0
6:15 pm 18:15 Sunny 79 26 48 9 34 34 NNW 14 22 30 1016 10 16.09344 0 0
6:35 pm 18:35 Sunny 79 26 46 8 32 32 NNW 14 22 30 1016 10 16.09344 0 0
6:55 pm 18:55 Sunny 77 25 46 8 34 34 NNW 16 26 30 1016 10 16.09344 0 0
7:15 pm 19:15 Sunny 77 25 46 8 34 34 N 10 17 30 1016 10 16.09344 0 0
7:35 pm 19:35 Sunny 77 25 45 7 32 32 N 14 22 30.03 1017 10 16.09344 0 0
8:15 pm 20:15 Sunny 72 22 46 8 41 41 NW 8 13 30.03 1017 10 16.09344 0 0
8:35 pm 20:35 Clear 68 20 50 10 53 53 NW 5 7 30.03 1017 10 16.09344 0 0
8:55 pm 20:55 Clear 70 21 46 8 43 43 Calm 30.03 1017 10 16.09344 0 0
9:15 pm 21:15 Clear 70 21 46 8 43 43 Calm 30.03 1017 10 16.09344 0 0
9:35 pm 21:35 Clear 64 18 50 10 60 60 Calm 30.03 1017 10 16.09344 0 0
9:55 pm 21:55 Clear 64 18 50 10 60 60 Calm 30.03 1017 10 16.09344 0 0
10:15 pm 22:15 Clear 63 17 52 11 68 68 Calm 30.06 1018 10 16.09344 0 0
10:35 pm 22:35 Clear 61 16 54 12 77 77 Calm 30.06 1018 10 16.09344 0 0
10:55 pm 22:55 Clear 61 16 54 12 77 77 Calm 30.06 1018 10 16.09344 0 0
11:15 pm 23:15 Clear 59 15 52 11 77 77 W 3 6 30.06 1018 10 16.09344 0 0
11:35 pm 23:35 Partly Cloudy 61 16 52 11 72 72 Calm 30.06 1018 10 16.09344 0 0
11:55 pm 23:55 Partly Cloudy 61 16 50 10 68 68 W 5 7 30.06 1018 10 16.09344 0 0

Powered by AerisWeather